Jacksonville Craig, FL

12:43 AM EST on December 14, 2017 (GMT -0500)
Craig Municipal

Weather History for KCRG - March, 2014

Change the Weather History Date:

Wednesday, March 12, 2014

  Actual Average Record
Temperature  
Mean Temperature 71 °F -  
Max Temperature 82 °F 69 °F 82 °F (2006)
Min Temperature 60 °F 51 °F 35 °F (1998)
Cooling Degree Days 6    
Growing Degree Days 21 (Base 50)    
Moisture  
Dew Point 56 °F    
Average Humidity 65    
Maximum Humidity 88    
Minimum Humidity 39    
Precipitation  
Precipitation 0.01 in - - ()
Sea Level Pressure  
Sea Level Pressure 29.73 in    
Wind  
Wind Speed 8 mph (WSW)    
Max Wind Speed 22 mph    
Max Gust Speed 32 mph    
Visibility 10 miles    
Events Rain , Thunderstorm    
Averages and records for this station are not official NWS values.
T = Trace of Precipitation, MM = Missing Value Source: NWS Daily Summary

Daily Weather History Graph

Daily Weather History Graph

Search for Another Location

Airport or City:

Trip Planner

Search our weather history database for the weather conditions in past years. The results will help you decide how hot, cold, wet, or windy it might be!

Date:

Astronomy

Mar. 12, 2014 Rise Set
Actual Time 7:39 AM EDT 7:32 PM EDT
Civil Twilight 7:15 AM EDT 7:56 PM EDT
Nautical Twilight 6:47 AM EDT 8:24 PM EDT
Astronomical Twilight 6:19 AM EDT 8:52 PM EDT
Moon 4:13 PM EDT (3/12) 4:57 AM EDT (3/12)
Length of Visible Light 12h 40m
Length of Day
11h 52m
Waxing Gibbous, 85% of the Moon is Illuminated
Mar 12
Waxing Gibbous
Mar 16
Full
Mar 23
Last Quarter
Mar 30
New
Apr 7
First Quarter

Hourly Weather History & Observations

Time (EDT) Temp. Heat Index Dew Point Humidity Pressure Visibility Wind Dir Wind Speed Gust Speed Precip Events Conditions
12:53 AM 66.0 °F - 54.0 °F 65% 29.83 in 10.0 mi SSW 4.6 mph - N/A   Partly Cloudy
1:53 AM 66.0 °F - 54.0 °F 65% 29.81 in 10.0 mi South 3.5 mph - N/A   Overcast
2:53 AM 64.9 °F - 55.0 °F 70% 29.78 in 10.0 mi South 3.5 mph - 0.00 in   Mostly Cloudy
3:53 AM 63.0 °F - 57.0 °F 81% 29.75 in 10.0 mi Calm Calm - 0.00 in Rain Light Rain
4:53 AM 63.0 °F - 57.0 °F 81% 29.73 in 10.0 mi Calm Calm - 0.00 in   Overcast
5:26 AM 63.0 °F - 57.9 °F 84% 29.75 in 10.0 mi NNW 6.9 mph - N/A Thunderstorm Overcast
5:41 AM 63.0 °F - 55.0 °F 75% 29.76 in 10.0 mi NNW 18.4 mph 24.2 mph 0.00 in Rain Light Rain
5:53 AM 61.0 °F - 55.0 °F 81% 29.75 in 10.0 mi North 8.1 mph - 0.01 in Rain Light Rain
6:53 AM 60.1 °F - 55.9 °F 86% 29.75 in 10.0 mi Variable 4.6 mph - 0.00 in   Overcast
7:48 AM 60.8 °F - 57.2 °F 88% 29.74 in 10.0 mi SE 3.5 mph - N/A   Overcast
7:53 AM 61.0 °F - 57.0 °F 87% 29.74 in 10.0 mi ESE 3.5 mph - N/A   Overcast
8:53 AM 63.0 °F - 57.9 °F 84% 29.76 in 10.0 mi Calm Calm - N/A   Scattered Clouds
9:53 AM 70.0 °F - 62.1 °F 76% 29.76 in 10.0 mi WSW 13.8 mph 21.9 mph N/A   Clear
10:53 AM 75.0 °F - 60.1 °F 60% 29.75 in 10.0 mi West 13.8 mph 20.7 mph N/A   Mostly Cloudy
11:53 AM 77.0 °F - 59.0 °F 54% 29.74 in 10.0 mi West 17.3 mph 29.9 mph N/A   Mostly Cloudy
12:53 PM 77.0 °F - 59.0 °F 54% 29.73 in 10.0 mi West 18.4 mph 32.2 mph N/A   Mostly Cloudy
1:53 PM 80.1 °F 80.6 °F 57.9 °F 47% 29.69 in 10.0 mi West 18.4 mph 28.8 mph N/A   Partly Cloudy
2:53 PM 80.1 °F 80.2 °F 55.9 °F 43% 29.67 in 10.0 mi West 16.1 mph 29.9 mph N/A   Scattered Clouds
3:53 PM 82.0 °F 81.4 °F 55.0 °F 39% 29.65 in 10.0 mi WSW 21.9 mph 31.1 mph N/A   Partly Cloudy
4:53 PM 80.1 °F 80.0 °F 54.0 °F 40% 29.64 in 10.0 mi West 20.7 mph 28.8 mph N/A   Clear
5:53 PM 78.1 °F - 55.0 °F 45% 29.64 in 10.0 mi West 13.8 mph 25.3 mph N/A   Scattered Clouds
6:53 PM 75.9 °F - 53.1 °F 45% 29.65 in 10.0 mi West 15.0 mph 28.8 mph N/A   Clear
7:53 PM 73.0 °F - 53.1 °F 49% 29.67 in 10.0 mi West 17.3 mph 21.9 mph N/A   Clear
8:53 PM 71.1 °F - 55.0 °F 57% 29.70 in 10.0 mi WSW 11.5 mph - N/A   Clear
9:53 PM 69.1 °F - 55.9 °F 63% 29.73 in 10.0 mi WSW 13.8 mph - N/A   Clear
10:53 PM 66.0 °F - 55.9 °F 70% 29.75 in 10.0 mi WSW 12.7 mph 20.7 mph N/A   Clear
11:53 PM 64.9 °F - 57.0 °F 75% 29.78 in 10.0 mi WSW 13.8 mph - N/A   Partly Cloudy